SL-14 DEB, 45332

Orbit data source: Space-Track

SL-14 DEB, 45332 is space debris in LEO originally from a launch on Thu, 15 Aug 1991 UTC launched from the Plesetsk Missile And Space Complex (PKMTR). Debris objects in space refer to the collection of defunct objects orbiting the Earth. Examples of debris include non-operational satellites, rocket bodies, and fragments generated from explosions, collisions, or faulty payload assembly.

Loading next visibility...
Identifier
45332, 1991-056BW
Orbit
LEO
Country
Flag of CISCIS
Related business
Manufacturer
Unknown
Mission
Spacecraft
Bus & Motor
Unknown
Mass
Unknown
Launch date (UTC)
1991-08-15 (35 years ago)
Launch vehicle
Unknown
Launch site
Plesetsk Missile And Space Complex (PKMTR)
Object type
Payload
Rocket body
Debris
Shape & HBR
Unknown shape, 0.1 m
Radar Cross Section
Medium (>0.1 m² and <1 m²)

Expand to show TLE details & history
Last TLE update: 2 days ago

TLE from 2 days ago
0 SL-14 DEB
1 45332U 91056BW  26255.98331276  .00000552  00000-0  14417-2 0  9998
2 45332  82.5485  89.4575 0106872 341.7595  17.9703 13.13235728312993
Epoch: 2026-09-12T23:35Z
TLE epoch observation values (Epoch: 2026-09-12T23:35:58.222Z)
Latitude
-0.00006°
Longitude
103.48041°
Altitude
1,136.393 km
Speed
7.321 km/s
True Right ascension
05h 57m 49s
True Declination
0° 00' 00"
Sunlit
Object was in daylight at epoch
Visualization orbit readout
Latitude
Unknown
Longitude
Unknown
Altitude
Unknown
Speed
Unknown
Apparent Right ascension
Unknown
Apparent Declination
Unknown
Sunlit
N/A
Visualization observer readout
Local Sidereal Time
16:02:50
Azimuth
Unknown
Elevation
Unknown
Doppler factor
Unknown
Orbital elements
Apogee altitude
1,288.991 km
Perigee altitude
1,126.844 km
Semi-major axis
7,586.054 km
Eccentricity
0.01069
Inclination
82.5485°
RAAN
89.4575°
Arg. of periapsis
341.7595°
True anomaly
18.353°
Mean anomaly
17.9703°
Eccentric anomaly
18.16116°
Mean motion
3.28488 °/min
Orbital period
109.59 mins
BSTAR
0.0014417
Loading maneuver chart data...
Computing Atmospheric mass density...
Loading historical data...
Loading historical data...
Loading historical data...
Loading historical data...
Loading historical data...
Loading historical data...
Loading historical data...

Documentation

Showing up to 5 results
|